Tracking 19638 objects as of 20-Apr-2019
HD Live streaming from Space Station
objects crossing your sky now

SL-18 DEB

Track SL-18 DEB now!
10-day predictions


NORAD ID: 22567
Int'l Code: 1993-014C
Perigee: 662.7 km
Apogee: 898.6 km
Inclination: 75.8 °
Period: 100.3 minutes
Semi major axis: 7151 km
RCS: 0.0441 m2 (small)
Launch date: March 25, 1993
Source: Commonwealth of Independent States (former USSR) (CIS)
Launch site: PLESETSK MISSILE AND SPACE COMPLEX (PKMTR)

Note: This is SATELLITE DEBRIS
aabbcc
Your satellite tracking list
Your tracking list is empty




NASA's NSSDC Master Catalog

Two Line Element Set (TLE):
1 22567U 93014C   19108.43478213 +.00000214 +00000-0 +68218-4 0  9996
2 22567 075.7531 092.8837 0164945 158.5832 325.7324 14.35475676358189
Source of the keplerian elements: AFSPC